Regional Weather Roundup
Issued by NWS

Home | Current Version | Previous Version | Text Only | Print | Product List | Glossary Off
Versions: 1 2 3 4 5 6 7 8 9 10 11 12 13 14 15 16 17 18 19 20 21 22 23 24 25 26 27 28 29 30 31 32 33 34 35 36 37 38 39 40 41 42 43 44 45 46 47 48 49 50

000
ASUS43 KBIS 241010
RWRND

NORTH DAKOTA REGIONAL WEATHER ROUNDUP
NATIONAL WEATHER SERVICE BISMARCK ND
500 AM CDT SAT JUN 24 2017

NOTE: "FAIR" INDICATES FEW OR NO CLOUDS BELOW 12,000 FEET WITH NO
SIGNIFICANT WEATHER AND/OR OBSTRUCTIONS TO VISIBILITY.


NDZ001>003-009>011-017-241100-
NORTHWEST NORTH DAKOTA

CITY           SKY/WX    TMP DP  RH WIND       PRES   REMARKS
WILLISTON      PTCLDY    45  35  68 NW12      30.19S
MINOT          PTCLDY    45  41  86 W13       30.10R
MINOT AFB      MOCLDY    44  41  90 NW13      30.10R
$$

NDZ018>021-031>035-040>046-241100-
SOUTHWEST NORTH DAKOTA

CITY           SKY/WX    TMP DP  RH WIND       PRES   REMARKS
BISMARCK       CLOUDY    49  43  80 W5        30.12R
DICKINSON      CLOUDY    43  35  73 NW6       30.16S
GARRISON         N/A     44  40  85 NW9       30.11R
HETTINGER ARPT PTCLDY    41  31  67 NW8       30.18S
$$

NDZ004>008-012>016-024-026-027-054-241100-
NORTHEAST NORTH DAKOTA

CITY           SKY/WX    TMP DP  RH WIND       PRES   REMARKS
GRAND FORKS    CLOUDY    52  43  71 W10       29.96S
GRND FRKS AFB  DRIZZLE   52  41  66 NW13G18   29.97R
DEVILS LAKE    CLOUDY    48  42  80 NW14G20   30.02R
$$

NDZ022-023-025-028>030-036>039-047>053-241100-
SOUTHEAST NORTH DAKOTA

CITY           SKY/WX    TMP DP  RH WIND       PRES   REMARKS
FARGO          MOCLDY    49  41  74 W9        29.99F
JAMESTOWN      CLOUDY    50  41  71 NW15      30.04S
$$





USA.gov is the U.S. government's official web portal to all federal, state and local government web resources and services.